Weather reports worldwide

Advertisment
Arezzo, Italy (16172): temperature & dewpoint: 11.07.2019 01:00:00 - 17.07.2019 01:00:00 (CEST)Arezzo, Italy (16172): wind speed: 11.07.2019 01:00:00 - 17.07.2019 01:00:00 (CEST)Arezzo, Italy (16172): wind direction: 11.07.2019 01:00:00 - 17.07.2019 01:00:00 (CEST)Arezzo, Italy (16172): reduced air pressure: 11.07.2019 01:00:00 - 17.07.2019 01:00:00 (CEST)Arezzo, Italy (16172): visibility: 11.07.2019 01:00:00 - 17.07.2019 01:00:00 (CEST)
Date & Time tt [°C] td [°C] ff [km/h] ff [kn] dd ppp [hPa] vv [km]
17.07.2019 01:00:00 - - - - - - -
17.07.2019 00:00:00 - - - - - - -
16.07.2019 23:00:00 - - - - - - -
16.07.2019 22:00:00 - - - - - - -
16.07.2019 21:00:00 - - - - - - -
16.07.2019 20:00:00 25,0 8,5 9 5 NNE 1012,0 20
16.07.2019 19:00:00 - - - - - - -
16.07.2019 18:00:00 - - - - - - -
16.07.2019 17:00:00 27,0 9,4 13 7 NE 1011,7 20
16.07.2019 16:00:00 - - - - - - -
16.07.2019 15:00:00 - - - - - - -
16.07.2019 14:00:00 26,6 11,1 15 8 NE 1011,7 20
16.07.2019 13:00:00 - - - - - - -
16.07.2019 12:00:00 - - - - - - -
16.07.2019 11:00:00 24,4 13,6 18 10 NE 1011,5 20
16.07.2019 10:00:00 - - - - - - -
16.07.2019 09:00:00 - - - - - - -
16.07.2019 08:00:00 20,2 15,0 4 2 N 1010,8 20
16.07.2019 07:00:00 - - - - - - -
16.07.2019 06:00:00 - - - - - - -
16.07.2019 05:00:00 - - - - - - -
16.07.2019 04:00:00 - - - - - - -
16.07.2019 03:00:00 - - - - - - -
16.07.2019 02:00:00 - - - - - - -
16.07.2019 01:00:00 - - - - - - -
16.07.2019 00:00:00 - - - - - - -
15.07.2019 23:00:00 - - - - - - -
15.07.2019 22:00:00 - - - - - - -
15.07.2019 21:00:00 - - - - - - -
15.07.2019 20:00:00 20,2 16,0 9 5 NNE 1008,9 16
15.07.2019 19:00:00 - - - - - - -
15.07.2019 18:00:00 - - - - - - -
15.07.2019 17:00:00 19,6 18,1 8 4 NNE 1009,0 14
15.07.2019 16:00:00 - - - - - - -
15.07.2019 15:00:00 - - - - - - -
15.07.2019 14:00:00 20,0 18,8 5 3 NNE 1008,8 12
15.07.2019 13:00:00 - - - - - - -
15.07.2019 12:00:00 - - - - - - -
15.07.2019 11:00:00 19,6 16,6 4 2 NE 1008,5 14
15.07.2019 10:00:00 - - - - - - -
15.07.2019 09:00:00 - - - - - - -
15.07.2019 08:00:00 20,4 14,5 5 3 N 1007,9 12
15.07.2019 07:00:00 - - - - - - -
15.07.2019 06:00:00 - - - - - - -
15.07.2019 05:00:00 - - - - - - -
15.07.2019 04:00:00 - - - - - - -
15.07.2019 03:00:00 - - - - - - -
15.07.2019 02:00:00 - - - - - - -
15.07.2019 01:00:00 - - - - - - -
15.07.2019 00:00:00 - - - - - - -
14.07.2019 23:00:00 - - - - - - -
14.07.2019 22:00:00 - - - - - - -
14.07.2019 21:00:00 - - - - - - -
14.07.2019 20:00:00 25,4 12,6 11 6 ENE 1008,3 18
14.07.2019 19:00:00 - - - - - - -
14.07.2019 18:00:00 - - - - - - -
14.07.2019 17:00:00 28,0 10,2 9 5 E 1008,8 20
14.07.2019 16:00:00 - - - - - - -
14.07.2019 15:00:00 - - - - - - -
14.07.2019 14:00:00 28,6 10,3 5 3 SSE 1010,3 20
14.07.2019 13:00:00 - - - - - - -
14.07.2019 12:00:00 - - - - - - -
14.07.2019 11:00:00 27,4 13,7 9 5 E 1011,0 18
14.07.2019 10:00:00 - - - - - - -
14.07.2019 09:00:00 - - - - - - -
14.07.2019 08:00:00 18,8 13,2 8 4 NE 1011,7 16
14.07.2019 07:00:00 - - - - - - -
14.07.2019 06:00:00 - - - - - - -
14.07.2019 05:00:00 - - - - - - -
14.07.2019 04:00:00 - - - - - - -
14.07.2019 03:00:00 - - - - - - -
14.07.2019 02:00:00 - - - - - - -
14.07.2019 01:00:00 - - - - - - -
14.07.2019 00:00:00 - - - - - - -
13.07.2019 23:00:00 - - - - - - -
13.07.2019 22:00:00 - - - - - - -
13.07.2019 21:00:00 - - - - - - -
13.07.2019 20:00:00 25,0 14,5 9 5 ENE 1008,1 18
13.07.2019 19:00:00 - - - - - - -
13.07.2019 18:00:00 - - - - - - -
13.07.2019 17:00:00 26,4 18,5 11 6 ENE 1007,3 16
13.07.2019 16:00:00 - - - - - - -
13.07.2019 15:00:00 - - - - - - -
13.07.2019 14:00:00 22,0 19,5 13 7 NE 1009,2 10
13.07.2019 13:00:00 - - - - - - -
13.07.2019 12:00:00 - - - - - - -
13.07.2019 11:00:00 25,0 19,2 5 3 E 1009,1 14
13.07.2019 10:00:00 - - - - - - -
13.07.2019 09:00:00 - - - - - - -
13.07.2019 08:00:00 19,8 18,1 0 0 N 1009,7 5
13.07.2019 07:00:00 - - - - - - -
13.07.2019 06:00:00 - - - - - - -
13.07.2019 05:00:00 - - - - - - -
13.07.2019 04:00:00 - - - - - - -
13.07.2019 03:00:00 - - - - - - -
13.07.2019 02:00:00 - - - - - - -
13.07.2019 01:00:00 - - - - - - -
13.07.2019 00:00:00 - - - - - - -
12.07.2019 23:00:00 - - - - - - -
12.07.2019 22:00:00 - - - - - - -
12.07.2019 21:00:00 - - - - - - -
12.07.2019 20:00:00 26,0 18,9 5 3 N 1009,1 16
12.07.2019 19:00:00 - - - - - - -
12.07.2019 18:00:00 - - - - - - -
12.07.2019 17:00:00 26,4 19,0 9 5 ESE 1009,7 15
12.07.2019 16:00:00 - - - - - - -
12.07.2019 15:00:00 - - - - - - -
12.07.2019 14:00:00 29,0 16,6 5 3 N 1010,4 15
12.07.2019 13:00:00 - - - - - - -
12.07.2019 12:00:00 - - - - - - -
12.07.2019 11:00:00 26,4 14,5 0 0 N 1011,5 16
12.07.2019 10:00:00 - - - - - - -
12.07.2019 09:00:00 - - - - - - -
12.07.2019 08:00:00 21,0 17,8 0 0 N 1012,4 16
12.07.2019 07:00:00 - - - - - - -
12.07.2019 06:00:00 - - - - - - -
12.07.2019 05:00:00 - - - - - - -
12.07.2019 04:00:00 - - - - - - -
12.07.2019 03:00:00 - - - - - - -
12.07.2019 02:00:00 - - - - - - -
12.07.2019 01:00:00 - - - - - - -
12.07.2019 00:00:00 - - - - - - -
11.07.2019 23:00:00 - - - - - - -
11.07.2019 22:00:00 - - - - - - -
11.07.2019 21:00:00 - - - - - - -
11.07.2019 20:00:00 27,2 12,4 13 7 E 1011,0 18
11.07.2019 19:00:00 - - - - - - -
11.07.2019 18:00:00 - - - - - - -
11.07.2019 17:00:00 28,2 11,3 5 3 SSW 1011,5 18
11.07.2019 16:00:00 - - - - - - -
11.07.2019 15:00:00 - - - - - - -
11.07.2019 14:00:00 27,6 10,8 4 2 N 1012,6 18
11.07.2019 13:00:00 - - - - - - -
11.07.2019 12:00:00 - - - - - - -
11.07.2019 11:00:00 25,4 10,1 9 5 NE 1013,4 18
11.07.2019 10:00:00 - - - - - - -
11.07.2019 09:00:00 - - - - - - -
11.07.2019 08:00:00 17,4 13,7 0 0 N 1014,1 18
11.07.2019 07:00:00 - - - - - - -
11.07.2019 06:00:00 - - - - - - -
11.07.2019 05:00:00 - - - - - - -
11.07.2019 04:00:00 - - - - - - -
11.07.2019 03:00:00 - - - - - - -
11.07.2019 02:00:00 - - - - - - -
11.07.2019 01:00:00 - - - - - - -

tt = temperature
td = dewpoint
ff = wind speed
dd = wind direction
ppp = reduced air pressure
vv = visibility

Next stations